Regional Weather Roundup
Issued by NWS

Home | Current Version | Previous Version | Graphics & Text | Print | Product List | Glossary On
Versions: 1 2 3 4 5 6 7 8 9 10 11 12 13 14 15 16 17 18 19 20 21 22 23 24 25 26 27 28 29 30 31 32 33 34 35 36 37 38 39 40 41 42 43 44 45 46 47 48 49 50
000
ASUS43 KLSX 040057
RWRMO

WEATHER SUMMARY FOR MISSOURI
NATIONAL WEATHER SERVICE SPRINGFIELD MO
700 PM CST SAT DEC 03 2016

NOTE: "FAIR" INDICATES FEW OR NO CLOUDS BELOW 12,000 FEET WITH NO
       SIGNIFICANT WEATHER AND/OR OBSTRUCTIONS TO VISIBILITY.
       CURRENT SKY AND/OR WEATHER CONDITIONS ARE NOT AVAILABLE FOR
       CHILLICOTHE AND FARMINGTON.

MOZ001>031-035>038-043-044-053-054-040200-
...NORTHERN AND WESTERN MISSOURI...

CITY           SKY/WX    TMP DP  RH WIND       PRES   REMARKS
KANSAS CTY INT CLOUDY    45  30  55 E7        30.13S
LEE`S SUMMIT   CLOUDY    46  32  58 SE7       30.14F
ST JOSEPH      CLOUDY    43  31  62 E5        30.14F
CHILLICOTHE      N/A     43  32  65 E7        30.19S

$$
MOZ066>068-077>081-088>096-101>105-040200-
...SOUTHWEST MISSOURI...

CITY           SKY/WX    TMP DP  RH WIND       PRES   REMARKS
SPRINGFIELD    LGT RAIN  40  35  83 SE13      30.13F
JOPLIN         LGT RAIN  42  39  89 E7        30.12F
BRANSON        LGT RAIN  37  37 100 E14       30.14F FOG     WCI  29

$$
MOZ032>034-039>042-045>050-055>058-069>072-040200-
...CENTRAL MISSOURI...

CITY           SKY/WX    TMP DP  RH WIND       PRES   REMARKS
COLUMBIA       NOT AVBL
JEFFERSON CITY CLOUDY    44  32  62 E7        30.21F
ROLLA          CLOUDY    41  31  67 SE7       30.19F
SEDALIA        CLOUDY    44  32  62 E9        30.17F
WARRENSBURG    CLOUDY    45  32  61 E8        30.15F

$$
MOZ051-052-059>065-040200-
...EAST CENTRAL MISSOURI...

CITY           SKY/WX    TMP DP  RH WIND       PRES   REMARKS
ST LOUIS INTL  CLOUDY    42  32  67 E7        30.27S

$$
MOZ072>076-082>087-097>100-106>115-040200-
...SOUTH CENTRAL AND SOUTHEAST MISSOURI...

CITY           SKY/WX    TMP DP  RH WIND       PRES   REMARKS
CAPE GIRARDEAU CLOUDY    41  33  73 E3        30.28S
POPLAR BLUFF   LGT RAIN  41  38  89 E3        30.27S
WEST PLAINS    LGT RAIN  38  36  92 E9        30.21F

$$



USA.gov is the U.S. government's official web portal to all federal, state and local government web resources and services.